Date String (YYYY-MM-DD hh:mm:ss) UTC,Instrument flags,Ambient pressure (hPa),Sample flow (lpm),Bypass flow (lpm),Sample temperature (°C),Ambient temperature (°C),ASC tube jacket temperature (°C),LED temperature (°C),Box temperature (°C),Sample RH (%),Span deviation,Mass concentration (μg/m³),Mass concentration (μg/m³),Mass concentration (μg/m³)
DateTimeUTC,F1_M11,P_M11,Q1_M11,Q2_M11,T1_M11,T2_M11,T3_M11,T4_M11,T5_M11,U1_M11,ZSPAN_M11,X0_M11,X2_M11,X1_M11
2022-06-13 15:00:00,,0816.2,4.99,0.00,29.3,28.0,00.0,38.1,31.2,23.3,0003.3,0022.84,0007.25,0004.77
2022-06-13 15:01:00,,0816.2,5.00,0.00,29.3,28.1,00.0,38.1,31.2,22.5,0002.4,0022.08,0007.11,0004.62
2022-06-13 15:02:00,,0816.2,5.00,0.00,29.3,28.2,00.0,38.1,31.3,19.8,0000.0,0022.11,0007.00,0004.54
2022-06-13 15:03:00,,0816.2,5.00,0.00,29.3,27.8,00.0,38.0,31.2,20.1,0000.0,0022.99,0006.99,0004.51
2022-06-13 15:04:00,,0816.2,5.01,0.00,29.2,27.3,00.0,38.0,31.0,20.7,0000.0,0023.63,0007.01,0004.47
2022-06-13 15:05:00,,0816.2,4.99,0.00,29.2,27.2,00.0,38.0,31.0,17.6,0000.0,0023.98,0007.08,0004.44
2022-06-13 15:06:00,,0816.3,4.99,0.00,29.2,27.3,00.0,38.0,30.9,21.5,0000.0,0024.42,0007.14,0004.45
2022-06-13 15:07:00,,0816.3,5.01,0.00,29.1,27.4,00.0,38.0,30.9,21.8,0000.0,0024.68,0007.13,0004.45
2022-06-13 15:08:00,,0816.3,4.99,0.00,29.1,27.5,00.0,38.0,31.0,18.4,0000.0,0024.74,0007.09,0004.38
2022-06-13 15:09:00,,0816.3,5.00,0.00,29.1,27.7,00.0,38.0,31.0,19.1,0000.0,0023.41,0007.04,0004.35
2022-06-13 15:10:00,,0816.3,5.00,0.00,29.1,27.9,00.0,38.0,31.1,16.0,0000.0,0023.23,0007.04,0004.34
2022-06-13 15:11:00,,0816.3,5.01,0.00,29.2,28.0,00.0,38.0,31.1,18.9,0000.0,0023.84,0006.97,0004.34
2022-06-13 15:12:00,,0816.3,5.00,0.00,29.2,28.1,00.0,38.0,31.2,20.8,0000.0,0024.19,0006.92,0004.33
2022-06-13 15:13:00,,0816.3,5.00,0.00,29.3,28.1,00.0,38.0,31.2,22.9,0000.0,0024.16,0006.91,0004.34
2022-06-13 15:14:00,,0816.3,5.00,0.00,29.2,27.5,00.0,38.0,31.0,22.3,0000.0,0024.22,0006.93,0004.34
2022-06-13 15:15:00,,0816.3,5.00,0.00,29.1,27.1,00.0,37.9,30.9,22.8,0000.0,0024.26,0006.91,0004.35
2022-06-13 15:16:00,,0816.3,4.99,0.00,29.1,27.1,00.0,37.9,30.9,21.3,0000.0,0024.60,0006.86,0004.36
2022-06-13 15:17:00,,0816.3,5.01,0.00,29.1,27.2,00.0,37.9,30.9,22.0,0003.6,0024.51,0006.81,0004.35
2022-06-13 15:18:00,,0816.4,5.01,0.00,29.0,27.4,00.0,37.9,30.9,20.4,0004.1,0025.16,0006.84,0004.35
2022-06-13 15:19:00,,0816.3,4.99,0.00,29.1,27.5,00.0,37.9,30.9,21.7,0003.8,0025.84,0006.80,0004.36
2022-06-13 15:20:00,,0816.3,5.00,0.00,29.1,27.7,00.0,37.9,31.0,22.3,0004.1,0026.97,0006.79,0004.36
2022-06-13 15:21:00,,0816.4,5.00,0.00,29.1,27.8,00.0,37.9,31.0,20.3,0004.3,0027.63,0006.82,0004.35
2022-06-13 15:22:00,,0816.4,5.00,0.00,29.1,28.0,00.0,38.0,31.1,16.2,0003.9,0026.39,0006.82,0004.35
2022-06-13 15:23:00,,0816.4,5.01,0.00,29.2,28.1,00.0,38.0,31.1,14.0,0003.9,0025.24,0006.79,0004.35
2022-06-13 15:24:00,,0816.4,4.99,0.00,29.2,28.2,00.0,38.0,31.2,16.2,0003.6,0024.98,0006.75,0004.33
2022-06-13 15:25:00,,0816.4,5.00,0.00,29.2,27.7,00.0,37.9,31.0,14.1,0003.1,0023.60,0006.70,0004.31
2022-06-13 15:26:00,,0816.3,5.01,0.00,29.1,27.2,00.0,37.9,30.9,14.0,0002.4,0022.81,0006.62,0004.29
2022-06-13 15:27:00,,0816.3,5.00,0.00,29.1,27.2,00.0,37.9,30.9,10.1,0002.5,0021.68,0006.55,0004.26
2022-06-13 15:28:00,,0816.3,5.00,0.00,29.0,27.2,00.0,37.9,30.8,10.7,0003.3,0021.60,0006.47,0004.24
2022-06-13 15:29:00,,0816.3,5.00,0.00,29.0,27.4,00.0,37.9,30.9,11.0,0002.6,0020.74,0006.36,0004.21
2022-06-13 15:30:00,,0816.4,4.99,0.00,29.0,27.5,00.0,37.9,30.9,12.7,0001.9,0019.01,0006.34,0004.18
2022-06-13 15:31:00,,0816.4,5.00,0.00,29.0,27.7,00.0,37.9,31.0,12.5,0000.0,0017.85,0006.33,0004.18
2022-06-13 15:32:00,,0816.4,5.01,0.00,29.1,27.8,00.0,37.9,31.0,13.4,0000.0,0016.07,0006.32,0004.17
2022-06-13 15:33:00,,0816.4,5.00,0.00,29.1,28.0,00.0,37.9,31.1,14.9,0000.0,0017.87,0006.53,0004.19
2022-06-13 15:34:00,,0816.4,4.99,0.00,29.1,28.1,00.0,37.9,31.1,12.4,-000.0,0020.27,0006.76,0004.21
2022-06-13 15:35:00,,0816.4,5.00,0.00,29.1,27.7,00.0,37.9,31.0,11.5,-000.1,0020.40,0006.80,0004.21
2022-06-13 15:36:00,,0816.3,5.00,0.00,29.0,27.1,00.0,37.8,30.8,11.4,-000.0,0021.51,0006.83,0004.21
2022-06-13 15:37:00,,0816.3,5.02,0.00,29.0,27.1,00.0,37.8,30.8,10.7,0000.0,0023.82,0006.88,0004.22
2022-06-13 15:38:00,,0816.3,4.99,0.00,29.0,27.2,00.0,37.8,30.8,10.5,0000.0,0024.15,0006.89,0004.23
2022-06-13 15:39:00,,0816.2,5.00,0.00,29.0,27.3,00.0,37.8,30.8,12.4,0000.0,0024.86,0006.99,0004.25
2022-06-13 15:40:00,,0816.3,5.01,0.00,29.0,27.4,00.0,37.8,30.8,12.7,0001.5,0025.37,0007.06,0004.26
2022-06-13 15:41:00,,0816.3,5.00,0.00,29.0,27.6,00.0,37.8,30.9,12.1,0002.5,0026.37,0007.07,0004.28
2022-06-13 15:42:00,,0816.3,5.00,0.00,29.0,27.8,00.0,37.8,31.0,11.5,0003.8,0027.29,0007.01,0004.28
2022-06-13 15:43:00,,0816.2,5.00,0.00,29.0,27.9,00.0,37.9,31.0,12.5,0003.8,0027.73,0006.97,0004.28
2022-06-13 15:44:00,,0816.2,4.99,0.00,29.1,28.1,00.0,37.9,31.1,10.0,0001.6,0026.43,0006.81,0004.30
2022-06-13 15:45:00,,0816.1,5.00,0.00,29.1,28.2,00.0,37.9,31.1,10.5,0002.5,0023.65,0006.61,0004.32
2022-06-13 15:46:00,,0816.1,5.01,0.00,29.1,27.9,00.0,37.8,31.1,09.1,0000.6,0023.12,0006.64,0004.34
2022-06-13 15:47:00,,0816.1,5.00,0.00,29.1,27.2,00.0,37.8,30.9,09.6,0000.0,0023.32,0006.70,0004.39
2022-06-13 15:48:00,,0816.1,4.99,0.00,29.0,27.1,00.0,37.8,30.8,11.3,0001.1,0021.33,0006.66,0004.44
2022-06-13 15:49:00,,0816.1,4.99,0.00,29.0,27.2,00.0,37.8,30.8,12.4,0002.0,0019.76,0006.66,0004.48
2022-06-13 15:50:00,,0816.1,5.00,0.00,29.0,27.3,00.0,37.8,30.8,11.8,0000.3,0019.13,0006.66,0004.54
2022-06-13 15:51:00,,0816.1,5.00,0.00,29.0,27.5,00.0,37.8,30.8,11.0,0000.3,0019.48,0006.70,0004.64
2022-06-13 15:52:00,,0816.1,5.00,0.00,29.0,27.6,00.0,37.8,30.9,10.8,0000.0,0019.23,0006.74,0004.75
2022-06-13 15:53:00,,0816.1,4.99,0.00,29.0,27.8,00.0,37.8,30.9,11.2,0000.0,0018.58,0006.94,0004.90
2022-06-13 15:54:00,,0816.1,4.99,0.00,29.1,27.9,00.0,37.8,31.0,12.5,0000.0,0017.87,0007.12,0005.08
2022-06-13 15:55:00,,0816.1,4.99,0.00,29.1,28.0,00.0,37.8,31.0,12.4,0000.0,0017.81,0007.29,0005.27
2022-06-13 15:56:00,,0816.0,5.01,0.00,29.1,27.5,00.0,37.8,30.9,12.4,0000.0,0018.92,0007.55,0005.51
2022-06-13 15:57:00,,0816.1,5.00,0.00,29.0,27.1,00.0,37.8,30.8,11.8,0001.5,0020.91,0007.87,0005.85
2022-06-13 15:58:00,,0816.0,5.00,0.00,29.0,27.1,00.0,37.7,30.8,11.8,0001.9,0022.13,0008.49,0006.44
2022-06-13 15:59:00,,0816.0,4.99,0.00,28.9,27.2,00.0,37.8,30.7,12.2,0001.4,0023.82,0009.13,0006.99
